Location: ??????
(56.0120°N, 39.1740°E)
Time: 11:16:55
(UTC+00:00)

Meteor 1-25 Rocket - Pass Details

Date: 14 April 2026
Orbit: 835 x 891 km, 81.2° (Epoch: 10 May)

Event Time Altitude Azimuth Distance (km) Brightness Sun altitude
Rises 22:59:55 0° 343° (NNW) 3,516 8.1 -21.3°
Reaches altitude 10° 23:02:25 10° 340° (NNW) 2,571 7.3 -21.2°
Maximum altitude 23:08:07 56° 264° (W) 1,051 4.4 -20.8°
Enters shadow 23:09:54 40° 211° (SSW) 1,276 4.6 -20.7°
